Location: Festilli
(46.4000°N, 11.6667°E)
Time: 15:23:16
(UTC+00:00)

COSMOS 2428 - Visible Passes

Search period start: 12 June 2021 00:00
Search period end: 22 June 2021 00:00
Orbit: 843 x 859 km, 70.9° (Epoch: 12 June)

Date Brightness Start Highest point End Pass type
(mag) Time Alt. Az. Time Alt. Az. Time Alt. Az.
12 Jun 4.8 00:46:27 10° W 00:50:36 20° NW 00:54:46 10° N visible
12 Jun 4.5 21:08:47 14° ESE 21:10:00 14° E 21:12:57 10° ENE visible
12 Jun 2.7 22:50:46 34° SSW 22:53:24 89° ESE 22:59:12 10° NNE visible
13 Jun 4.8 00:34:21 10° W 00:38:30 20° NW 00:42:40 10° N visible
13 Jun 4.4 20:56:29 13° ESE 20:57:53 14° E 21:00:51 10° ENE visible
13 Jun 2.7 22:38:27 32° SSW 22:41:18 89° ESE 22:47:06 10° NNE visible
14 Jun 4.9 00:22:15 10° W 00:26:24 20° NW 00:30:34 10° N visible
14 Jun 4.4 20:44:05 13° ESE 20:45:47 14° E 20:48:46 10° ENE visible
14 Jun 2.7 22:26:04 28° SSW 22:29:12 90° ESE 22:35:00 10° NNE visible
15 Jun 4.9 00:10:10 10° W 00:14:18 20° NW 00:18:27 10° N visible
15 Jun 4.4 20:31:39 12° ESE 20:33:41 15° E 20:36:41 10° ENE visible
15 Jun 2.7 22:13:36 25° SSW 22:17:06 90° SE 22:22:54 10° NNE visible
15 Jun 4.9 23:58:04 10° W 00:02:12 20° NW 00:06:21 10° N visible
16 Jun 4.4 20:19:05 11° SE 20:21:35 15° E 20:24:35 10° ENE visible
16 Jun 2.7 22:01:02 21° SSW 22:05:00 90° NNE 22:10:47 10° NNE visible
16 Jun 5.0 23:45:59 10° W 23:50:07 20° NW 23:54:15 10° N visible
17 Jun 4.4 20:06:28 10° SE 20:09:28 15° E 20:12:29 10° ENE visible
17 Jun 2.7 21:48:22 17° SSW 21:52:54 90° WNW 21:58:42 10° NNE visible
17 Jun 5.0 23:33:53 10° W 23:38:00 20° NW 23:42:08 10° N visible
18 Jun 4.4 19:54:21 10° SE 19:57:22 15° E 20:00:24 10° ENE visible
18 Jun 2.7 21:35:31 13° SSW 21:40:47 90° WNW 21:46:35 10° NNE visible
18 Jun 5.0 23:21:47 10° W 23:25:54 20° NW 23:30:03 10° N visible
19 Jun 4.4 19:42:14 10° SE 19:45:15 15° E 19:48:17 10° ENE visible
19 Jun 2.7 21:22:56 10° SSW 21:28:41 89° WNW 21:34:29 10° NNE visible
19 Jun 5.1 23:09:41 10° W 23:13:48 20° NW 23:17:56 10° N visible
20 Jun 2.7 21:10:50 10° SSW 21:16:35 89° WNW 21:22:22 10° NNE visible
20 Jun 5.1 22:57:35 10° W 23:01:41 20° NW 23:05:49 10° N visible
21 Jun 2.7 20:58:43 10° SSW 21:04:28 89° WNW 21:10:16 10° NNE visible
21 Jun 5.2 22:45:29 10° W 22:49:35 20° NW 22:53:43 10° N visible
